This demonstration page uses our WeatherBlox Daily Observations layout. Learn more.

Left ArrowRight Arrow

Hourly Observations for July 14, 2020

Temp ( °F °C ) Dew Point ( °F °C ) Humidity (%) Winds ( mph kmh ) Pressure ( in mb ) Visibility ( mi km ) Precip ( " mm )
12:51 am 00:51 Clear 86 30 55 12.8 35 35 E 13 20 29.78 1009 10 16.0934 0 0
1:51 am 01:51 Clear 84 28.9 55 12.8 37 37 ENE 10 17 29.78 1008 10 16.0934 0 0
2:51 am 02:51 Clear 83 28.3 55 12.8 38 38 E 9 15 29.77 1008 10 16.0934 0 0
3:51 am 03:51 Clear 84 28.9 54 12.2 36 36 NE 6 9 29.76 1008 10 16.0934 0 0
4:51 am 04:51 Clear 80 26.7 55 12.8 42 42 SW 6 9 29.78 1009 10 16.0934 0 0
5:51 am 05:51 Sunny 80 26.7 54 12.2 41 41 Calm 29.81 1009 10 16.0934 0 0
6:51 am 06:51 Sunny 82 27.8 56 13.3 41 41 ESE 3 6 29.83 1010 10 16.0934 0 0
7:51 am 07:51 Sunny 86 30 57 13.9 37 37 SSE 5 7 29.85 1011 10 16.0934 0 0
8:51 am 08:51 Sunny 90 32.2 56 13.3 32 32 Calm 29.85 1011 10 16.0934 0 0
9:51 am 09:51 Sunny 94 34.4 55 12.8 27 27 VRB 3 6 29.84 1011 10 16.0934 0 0
10:51 am 10:51 Sunny 97 36.1 56 13.3 25 25 W 8 13 29.83 1010 10 16.0934 0 0
11:51 am 11:51 Sunny 98 36.7 57 13.9 25 25 VRB 3 6 29.81 1009 10 16.0934 0 0
12:51 pm 12:51 Sunny 101 38.3 56 13.3 22 22 WSW 10 17 29.78 1009 10 16.0934 0 0
1:51 pm 13:51 Sunny 103 39.4 56 13.3 21 21 W 8 13 29.75 1008 10 16.0934 0 0
2:51 pm 14:51 Mostly Sunny 97 36.1 55 12.8 24 24 W 20 31 29.75 1008 10 16.0934 0 0
3:51 pm 15:51 Sunny 102 38.9 52 11.1 19 19 WNW 14 22 29.71 1006 10 16.0934 0 0
4:51 pm 16:51 Sunny 103 39.4 50 10 17 17 undefined N/A 29.68 1005 10 16.0934 0 0
5:48 pm 17:48 Sunny 99 37 52 11 21 21 SSW 8 13 29.57 1001 10 16.0934 0 0
5:51 pm 17:51 Sunny 98 36.7 52 11.1 21 21 SW 8 13 29.69 1005 10 16.0934 0 0
6:51 pm 18:51 Sunny 98 36.7 50 10 20 20 WSW 6 9 29.68 1005 10 16.0934 0 0
7:51 pm 19:51 Clear 96 35.6 49 9.4 20 20 W 7 11 29.69 1005 10 16.0934 0 0
8:51 pm 20:51 Clear 96 35.6 47 8.3 19 19 NW 12 19 29.71 1006 10 16.0934 0 0
9:51 pm 21:51 Clear 92 33.3 49 9.4 23 23 WNW 9 15 29.74 1007 10 16.0934 0 0
10:51 pm 22:51 Clear 89 31.7 49 9.4 25 25 NW 8 13 29.74 1007 10 16.0934 0 0
11:51 pm 23:51 Clear 88 31.1 49 9.4 26 26 NNW 7 11 29.75 1007 10 16.0934 0 0

Powered by AerisWeather